Location: Marcé
(47.5801°N, 0.3280°W)
Time: 21:51:15
(UTC+01:00)

Altair - Pass Details

Date: 12 December 2021
Orbit: 1501 x 1683 km, 47.2° (Epoch: 20 January)

Event Time Altitude Azimuth Distance (km) Brightness Sun altitude
Rises 17:03:44 0° 267° (W) 4,793 11.2 0.0°
Reaches altitude 10° 17:06:52 10° 268° (W) 3,784 10.6 -0.4°
Maximum altitude 17:16:28 89° 184° (S) 1,543 7.6 -1.8°
Drops below altitude 10° 17:25:45 10° 92° (E) 3,666 9.0 -3.1°
Sets 17:28:44 0° 93° (E) 4,639 9.5 -3.5°
